GW3448 Weather Reports


Display with metric or nautical units.
time (UTC)temp
F
wind
direction
speed
MPH
gust
MPH
rain 1hr
in
rain 24hr
in
rain mn
in
humidity
%
barometer
mb
20260504181319 77 321 2.0 8.0 0.00 0.00 0.00 39 1007.6
20260504181242 77 13 3.0 8.0 0.00 0.00 0.00 38 1007.6
20260504181118 77 0 3.0 8.0 0.00 0.00 0.00 38 1007.6
20260504181017 78 12 4.0 8.0 0.00 0.00 0.00 38 1007.6
20260504180917 78 342 3.0 6.0 0.00 0.00 0.00 39 1007.7
20260504180819 78 285 2.0 5.0 0.00 0.00 0.00 38 1007.7
20260504180715 78 0 1.0 5.0 0.00 0.00 0.00 41 1007.6
20260504180614 78 22 1.0 5.0 0.00 0.00 0.00 41 1007.6
20260504180515 77 60 2.0 5.0 0.00 0.00 0.00 42 1007.6
20260504180441 77 352 2.0 5.0 0.00 0.00 0.00 40 1007.6
20260504180428 77 352 1.0 5.0 0.00 0.00 0.00 41 1007.6
20260504180007 77 352 3.0 6.0 0.00 0.00 0.00 40 1007.6
20260504175953 77 9 2.0 6.0 0.00 0.00 0.00 40 1007.6
20260504175941 77 16 1.0 6.0 0.00 0.00 0.00 40 1007.6
20260504175930 77 5 2.0 6.0 0.00 0.00 0.00 40 1007.6
20260504175917 77 277 3.0 6.0 0.00 0.00 0.00 40 1007.6
20260504175855 77 352 3.0 6.0 0.00 0.00 0.00 40 1007.6
20260504175842 77 340 2.0 6.0 0.00 0.00 0.00 40 1007.6
20260504175831 76 9 2.0 6.0 0.00 0.00 0.00 42 1007.6
20260504174813 76 31 2.0 7.0 0.00 0.00 0.00 40 1007.6
20260504174802 76 26 2.0 7.0 0.00 0.00 0.00 41 1007.6
20260504174750 76 302 2.0 7.0 0.00 0.00 0.00 43 1007.6
20260504174501 75 290 2.0 7.0 0.00 0.00 0.00 41 1007.6
20260504174450 75 304 1.0 7.0 0.00 0.00 0.00 43 1007.6
20260504174102 75 349 4.0 7.0 0.00 0.00 0.00 41 1007.6
20260504174001 75 325 4.0 7.0 0.00 0.00 0.00 41 1007.6
20260504173902 76 38 2.0 7.0 0.00 0.00 0.00 41 1007.7
20260504173800 76 346 2.0 5.0 0.00 0.00 0.00 42 1007.7
20260504173703 76 324 2.0 5.0 0.00 0.00 0.00 42 1007.6
20260504173631 76 333 2.0 5.0 0.00 0.00 0.00 41 1007.7
20260504173615 76 340 2.0 5.0 0.00 0.00 0.00 43 1007.7
20260504173558 75 5 3.0 5.0 0.00 0.00 0.00 43 1007.7
20260504173545 75 46 2.0 5.0 0.00 0.00 0.00 43 1007.7
20260504173048 75 23 2.0 5.0 0.00 0.00 0.00 40 1007.6
20260504173023 75 347 2.0 4.0 0.00 0.00 0.00 41 1007.7
20260504172704 75 289 2.0 5.0 0.00 0.00 0.00 41 1007.7
20260504172604 75 275 2.0 5.0 0.00 0.00 0.00 40 1007.7
20260504172549 75 352 2.0 5.0 0.00 0.00 0.00 40 1007.7
20260504172525 75 344 2.0 5.0 0.00 0.00 0.00 41 1007.7
20260504172201 75 71 1.0 5.0 0.00 0.00 0.00 43 1007.7
20260504172102 75 352 2.0 5.0 0.00 0.00 0.00 43 1007.7
20260504172012 74 328 2.0 5.0 0.00 0.00 0.00 44 1007.7
20260504171903 74 46 2.0 5.0 0.00 0.00 0.00 42 1007.7
20260504171801 74 25 2.0 5.0 0.00 0.00 0.00 42 1007.7
20260504171702 74 25 2.0 4.0 0.00 0.00 0.00 41 1007.7
20260504171604 74 30 2.0 4.0 0.00 0.00 0.00 43 1007.7
20260504171546 74 24 2.0 4.0 0.00 0.00 0.00 43 1007.7
20260504171520 74 58 2.0 5.0 0.00 0.00 0.00 43 1007.7
20260504171509 74 76 1.0 5.0 0.00 0.00 0.00 45 1007.7
20260504171456 74 341 1.0 5.0 0.00 0.00 0.00 45 1007.7
20260504171226 74 72 2.0 5.0 0.00 0.00 0.00 45 1007.7
20260504171133 74 47 1.0 5.0 0.00 0.00 0.00 46 1007.7
20260504170902 74 31 2.0 5.0 0.00 0.00 0.00 45 1007.7
20260504170848 73 341 2.0 5.0 0.00 0.00 0.00 46 1007.7
20260504170257 73 180 1.0 3.0 0.00 0.00 0.00 46 1007.7
20260504170157 73 245 1.0 3.0 0.00 0.00 0.00 46 1007.7
20260504160402 68 292 2.0 4.0 0.00 0.00 0.00 55 1007.8
20260504160301 68 5 2.0 4.0 0.00 0.00 0.00 55 1007.8
20260504160201 68 344 2.0 4.0 0.00 0.00 0.00 54 1007.8
20260504160105 68 48 2.0 4.0 0.00 0.00 0.00 55 1007.8
20260504150944 63 346 0.0 3.0 0.00 0.00 0.00 67 1007.9
20260504150845 63 342 1.0 3.0 0.00 0.00 0.00 66 1007.9
20260504150746 63 334 1.0 3.0 0.00 0.00 0.00 66 1007.9
20260504150644 63 338 1.0 3.0 0.00 0.00 0.00 66 1007.9
20260504150542 63 329 1.0 3.0 0.00 0.00 0.00 66 1007.9
20260504150441 63 13 1.0 2.0 0.00 0.00 0.00 67 1007.9
20260504150408 62 15 1.0 3.0 0.00 0.00 0.00 68 1007.9
20260504150356 62 78 1.0 3.0 0.00 0.00 0.00 68 1007.8
20260504141301 58 322 1.0 3.0 0.00 0.00 0.00 76 1007.6
20260504141245 58 322 1.0 3.0 0.00 0.00 0.00 76 1007.6
20260504141223 58 321 1.0 3.0 0.00 0.00 0.00 76 1007.6
20260504140925 57 0 1.0 3.0 0.00 0.00 0.00 76 1007.6
20260504140912 57 352 0.0 3.0 0.00 0.00 0.00 77 1007.5
20260504140901 57 339 0.0 0.0 0.00 0.00 0.00 78 1007.6
20260504140503 56 339 0.0 0.0 0.00 0.00 0.00 78 1007.5
20260504140403 56 339 0.0 0.0 0.00 0.00 0.00 79 1007.5
20260504140343 56 339 0.0 1.0 0.00 0.00 0.00 78 1007.5
20260504140332 56 339 0.0 2.0 0.00 0.00 0.00 79 1007.5
20260504130255 52 0 0.0 0.0 0.00 0.00 0.00 85 1007.1
20260504130143 52 0 0.0 0.0 0.00 0.00 0.00 84 1007.1
20260504110634 55 109 0.0 0.0 0.00 0.00 0.00 79 1006.8
20260504110611 55 109 0.0 0.0 0.00 0.00 0.00 79 1006.8
20260504110603 55 109 0.0 0.0 0.00 0.00 0.00 79 1006.8
20260504110230 55 109 0.0 0.0 0.00 0.00 0.00 79 1006.8
20260504110129 55 109 0.0 0.0 0.00 0.00 0.00 79 1006.8
20260504100603 57 109 0.0 0.0 0.00 0.00 0.00 72 1006.8
20260504100504 57 109 0.0 0.0 0.00 0.00 0.00 72 1006.8
20260504100402 57 109 0.0 0.0 0.00 0.00 0.00 72 1006.8
20260504100320 57 109 0.0 0.0 0.00 0.00 0.00 72 1006.8
20260504100310 58 109 0.0 0.0 0.00 0.00 0.00 72 1006.8
20260504100258 58 109 0.0 0.0 0.00 0.00 0.00 71 1006.8
20260504090142 60 98 1.0 2.0 0.00 0.00 0.00 66 1006.7
20260504090132 60 98 1.0 2.0 0.00 0.00 0.00 66 1006.6
20260504090120 60 98 0.0 2.0 0.00 0.00 0.00 66 1006.6
20260504081754 62 256 1.0 3.0 0.00 0.00 0.00 61 1006.7
20260504081521 62 122 0.0 4.0 0.00 0.00 0.00 61 1006.7
20260504081202 62 121 1.0 4.0 0.00 0.00 0.00 61 1006.6
20260504081101 62 109 1.0 4.0 0.00 0.00 0.00 61 1006.7
20260504081002 62 161 1.0 4.0 0.00 0.00 0.00 60 1006.7
20260504080902 62 173 2.0 4.0 0.00 0.00 0.00 60 1006.7
20260504080802 62 173 2.0 4.0 0.00 0.00 0.00 60 1006.7
20260504080701 62 153 3.0 4.0 0.00 0.00 0.00 60 1006.7
20260504080636 62 171 2.0 4.0 0.00 0.00 0.00 60 1006.7
20260504080622 62 171 2.0 4.0 0.00 0.00 0.00 60 1006.7
20260504080301 62 207 2.0 4.0 0.00 0.00 0.00 60 1006.7
20260504080204 62 178 3.0 4.0 0.00 0.00 0.00 60 1006.7
20260504070330 67 236 0.0 5.0 0.00 0.00 0.00 43 1006.7
20260504070228 67 163 0.0 5.0 0.00 0.00 0.00 43 1006.7
20260504070130 67 164 0.0 5.0 0.00 0.00 0.00 43 1006.7
20260504060129 65 186 0.0 1.0 0.00 0.00 0.00 47 1006.7
20260504050744 66 167 0.0 0.0 0.00 0.00 0.00 49 1006.9
20260504050724 66 167 0.0 0.0 0.00 0.00 0.00 49 1006.9
20260504050402 66 167 0.0 0.0 0.00 0.00 0.00 48 1006.8
20260504050301 67 167 0.0 0.0 0.00 0.00 0.00 48 1006.9
20260504050204 67 167 0.0 0.0 0.00 0.00 0.00 48 1006.9
20260504050005 67 167 0.0 1.0 0.00 0.00 0.00 48 1006.9
20260504045901 67 167 0.0 1.0 0.00 0.00 0.00 47 1006.8
20260504045806 67 167 0.0 1.0 0.00 0.00 0.00 48 1006.8
20260504045701 67 167 0.0 1.0 0.00 0.00 0.00 48 1006.8
20260504045603 67 167 0.0 1.0 0.00 0.00 0.00 47 1006.8
20260504045532 67 167 0.0 1.0 0.00 0.00 0.00 47 1006.8
20260504045520 67 167 0.0 1.0 0.00 0.00 0.00 47 1006.8
20260504045204 67 167 0.0 1.0 0.00 0.00 0.00 47 1006.8
20260504045103 67 167 0.0 1.0 0.00 0.00 0.00 47 1006.8
20260504045050 67 167 0.0 1.0 0.00 0.00 0.00 47 1006.8
20260504045039 68 167 0.0 1.0 0.00 0.00 0.00 47 1006.8
20260504044700 68 167 0.0 1.0 0.00 0.00 0.00 47 1006.8
20260504044604 68 167 0.0 1.0 0.00 0.00 0.00 47 1006.8
20260504044502 68 167 0.0 1.0 0.00 0.00 0.00 47 1006.7
20260504044404 68 167 0.0 1.0 0.00 0.00 0.00 47 1006.8
20260504044331 68 167 0.0 1.0 0.00 0.00 0.00 48 1006.8
20260504044320 68 167 0.0 1.0 0.00 0.00 0.00 48 1006.8
20260504044259 68 167 0.0 1.0 0.00 0.00 0.00 47 1006.8
20260504044249 68 167 0.0 1.0 0.00 0.00 0.00 48 1006.8
20260504043703 69 167 0.0 1.0 0.00 0.00 0.00 48 1006.8
20260504043604 69 167 0.0 0.0 0.00 0.00 0.00 48 1006.9
20260504043502 69 167 0.0 0.0 0.00 0.00 0.00 48 1006.9
20260504043433 69 167 0.0 0.0 0.00 0.00 0.00 48 1006.9
20260504043421 69 167 0.0 0.0 0.00 0.00 0.00 47 1006.9
20260504043102 69 167 0.0 0.0 0.00 0.00 0.00 47 1006.9
20260504043003 69 167 0.0 0.0 0.00 0.00 0.00 47 1006.9
20260504042931 69 167 0.0 0.0 0.00 0.00 0.00 46 1006.9
20260504042919 69 167 0.0 0.0 0.00 0.00 0.00 47 1006.9
20260504042603 70 167 0.0 0.0 0.00 0.00 0.00 47 1006.9
20260504042500 70 167 0.0 0.0 0.00 0.00 0.00 47 1006.9
20260504042431 70 167 0.0 0.0 0.00 0.00 0.00 46 1007.0
20260504042418 70 167 0.0 0.0 0.00 0.00 0.00 47 1006.9
20260504042102 70 167 0.0 0.0 0.00 0.00 0.00 46 1006.9
20260504042001 70 167 0.0 0.0 0.00 0.00 0.00 47 1006.9
20260504041902 70 167 0.0 0.0 0.00 0.00 0.00 46 1006.9
20260504041840 71 167 0.0 0.0 0.00 0.00 0.00 46 1006.9
20260504041831 71 167 0.0 0.0 0.00 0.00 0.00 46 1006.8
20260504041811 71 167 0.0 0.0 0.00 0.00 0.00 46 1006.8
20260504041512 71 167 0.0 0.0 0.00 0.00 0.00 46 1006.9
20260504041502 71 167 0.0 1.0 0.00 0.00 0.00 46 1006.8
20260504041451 71 167 0.0 1.0 0.00 0.00 0.00 45 1006.9
20260504040902 71 167 0.0 1.0 0.00 0.00 0.00 45 1006.9
20260504040802 72 167 0.0 1.0 0.00 0.00 0.00 44 1006.8
20260504040701 72 167 0.0 1.0 0.00 0.00 0.00 44 1006.8
20260504040604 72 167 0.0 1.0 0.00 0.00 0.00 44 1006.8
20260504040502 72 167 0.0 1.0 0.00 0.00 0.00 44 1006.8
20260504040401 72 167 0.0 1.0 0.00 0.00 0.00 44 1006.8
20260504040343 72 167 0.0 0.0 0.00 0.00 0.00 44 1006.8
20260504040332 72 167 0.0 0.0 0.00 0.00 0.00 44 1006.8
20260504040002 73 167 0.0 0.0 0.00 0.00 0.00 44 1006.7
20260504035855 73 167 0.0 0.0 0.00 0.00 0.00 44 1006.8
20260504035756 73 167 0.0 0.0 0.00 0.00 0.00 44 1006.8
20260504035734 73 167 0.0 0.0 0.00 0.00 0.00 44 1006.8
20260504035711 73 167 0.0 0.0 0.00 0.00 0.00 43 1006.8
20260504035658 73 167 0.0 0.0 0.00 0.00 0.00 43 1006.7
20260504035648 74 167 0.0 0.0 0.00 0.00 0.00 43 1006.7
20260504035420 74 167 0.0 0.0 0.00 0.00 0.00 43 1006.8
20260504034833 74 167 0.0 1.0 0.00 0.00 0.00 42 1006.8
20260504034739 74 167 0.0 1.0 0.00 0.00 0.00 42 1006.8
20260504034630 74 167 0.0 1.0 0.00 0.00 0.00 42 1006.8
20260504034532 74 167 0.0 1.0 0.00 0.00 0.00 42 1006.7
20260504034430 75 167 0.0 1.0 0.00 0.00 0.00 41 1006.7
20260504034330 75 167 0.0 1.0 0.00 0.00 0.00 40 1006.8
20260504034306 75 167 0.0 1.0 0.00 0.00 0.00 40 1006.7
20260504034258 75 167 0.0 1.0 0.00 0.00 0.00 41 1006.7
20260504033934 75 167 0.0 1.0 0.00 0.00 0.00 39 1006.7
20260504033901 75 166 0.0 1.0 0.00 0.00 0.00 39 1006.7
20260504033850 76 166 0.0 1.0 0.00 0.00 0.00 39 1006.7
20260504033530 76 166 0.0 1.0 0.00 0.00 0.00 38 1006.7
20260504033431 76 165 0.0 1.0 0.00 0.00 0.00 38 1006.7
20260504033330 76 165 0.0 1.0 0.00 0.00 0.00 38 1006.7
20260504033231 76 163 0.0 1.0 0.00 0.00 0.00 38 1006.7
20260504033129 77 162 0.0 1.0 0.00 0.00 0.00 38 1006.7
20260504033055 77 148 0.0 0.0 0.00 0.00 0.00 38 1006.7
20260504033046 77 148 0.0 0.0 0.00 0.00 0.00 38 1006.7
20260504033032 77 148 0.0 0.0 0.00 0.00 0.00 38 1006.7
20260504032802 78 148 0.0 0.0 0.00 0.00 0.00 38 1006.7
20260504032521 78 148 0.0 0.0 0.00 0.00 0.00 38 1006.7
20260504032202 78 148 0.0 0.0 0.00 0.00 0.00 37 1006.7
20260504032105 78 148 0.0 1.0 0.00 0.00 0.00 37 1006.7
20260504032003 78 148 0.0 1.0 0.00 0.00 0.00 37 1006.7
20260504031902 79 148 0.0 1.0 0.00 0.00 0.00 36 1006.7
20260504031802 79 148 0.0 1.0 0.00 0.00 0.00 36 1006.7
20260504031706 79 148 0.0 1.0 0.00 0.00 0.00 36 1006.7
20260504031603 79 148 0.0 1.0 0.00 0.00 0.00 36 1006.7
20260504031503 79 148 0.0 1.0 0.00 0.00 0.00 36 1006.7
20260504031402 79 148 0.0 1.0 0.00 0.00 0.00 36 1006.7
20260504031302 80 148 0.0 1.0 0.00 0.00 0.00 35 1006.7
20260504031245 80 148 0.0 1.0 0.00 0.00 0.00 35 1006.7
20260504031234 80 146 0.0 1.0 0.00 0.00 0.00 34 1006.7
20260504030903 80 143 0.0 1.0 0.00 0.00 0.00 34 1006.7
20260504030801 81 142 0.0 1.0 0.00 0.00 0.00 33 1006.7
20260504030704 81 142 0.0 1.0 0.00 0.00 0.00 33 1006.7
20260504030601 81 142 0.0 1.0 0.00 0.00 0.00 33 1006.7
20260504030503 81 142 0.0 1.0 0.00 0.00 0.00 32 1006.7
20260504030404 81 142 0.0 1.0 0.00 0.00 0.00 32 1006.7
20260504030302 81 142 0.0 1.0 0.00 0.00 0.00 32 1006.6
20260504030200 82 142 0.0 1.0 0.00 0.00 0.00 32 1006.6
20260504030101 82 142 0.0 1.0 0.00 0.00 0.00 31 1006.6
20260504030002 82 142 0.0 1.0 0.00 0.00 0.00 31 1006.6
20260504025905 82 142 0.0 1.0 0.00 0.00 0.00 31 1006.5
20260504025803 82 142 0.0 1.0 0.00 0.00 0.00 31 1006.6
20260504025702 82 140 0.0 1.0 0.00 0.00 0.00 31 1006.6
20260504025601 83 140 0.0 1.0 0.00 0.00 0.00 31 1006.5
20260504025501 83 140 0.0 1.0 0.00 0.00 0.00 30 1006.5
20260504025402 83 140 0.0 1.0 0.00 0.00 0.00 31 1006.5
20260504025304 83 139 0.0 0.0 0.00 0.00 0.00 31 1006.5
20260504025226 83 139 0.0 0.0 0.00 0.00 0.00 31 1006.5
20260504025217 83 139 0.0 0.0 0.00 0.00 0.00 30 1006.5
20260504025156 83 139 0.0 0.0 0.00 0.00 0.00 30 1006.6
20260504025148 83 139 0.0 1.0 0.00 0.00 0.00 29 1006.6
20260504025137 84 139 0.0 1.0 0.00 0.00 0.00 29 1006.6
20260504024640 84 139 0.0 1.0 0.00 0.00 0.00 29 1006.6
20260504024251 84 139 0.0 1.0 0.00 0.00 0.00 29 1006.6
20260504024158 84 139 0.0 1.0 0.00 0.00 0.00 29 1006.6
20260504024144 84 139 0.0 1.0 0.00 0.00 0.00 28 1006.6
20260504024123 84 139 0.0 1.0 0.00 0.00 0.00 27 1006.6
20260504024111 84 139 0.0 1.0 0.00 0.00 0.00 27 1006.6
20260504023613 85 139 0.0 1.0 0.00 0.00 0.00 26 1006.6
20260504023551 85 139 0.0 1.0 0.00 0.00 0.00 26 1006.5
20260504023232 85 139 0.0 1.0 0.00 0.00 0.00 26 1006.6
20260504023130 85 139 0.0 1.0 0.00 0.00 0.00 26 1006.5
20260504023041 85 139 0.0 1.0 0.00 0.00 0.00 26 1006.5
20260504022930 85 139 0.0 1.0 0.00 0.00 0.00 26 1006.5
20260504022903 85 139 0.0 1.0 0.00 0.00 0.00 25 1006.5
20260504022850 85 139 0.0 1.0 0.00 0.00 0.00 25 1006.6
20260504022537 85 139 0.0 2.0 0.00 0.00 0.00 26 1006.6
20260504022458 85 139 0.0 2.0 0.00 0.00 0.00 25 1006.6
20260504022444 85 139 0.0 2.0 0.00 0.00 0.00 26 1006.6
20260504022123 85 136 0.0 3.0 0.00 0.00 0.00 24 1006.6
20260504022026 85 136 0.0 3.0 0.00 0.00 0.00 24 1006.6
20260504021921 86 136 0.0 3.0 0.00 0.00 0.00 24 1006.6
20260504021906 86 136 1.0 3.0 0.00 0.00 0.00 24 1006.6
20260504021856 86 136 1.0 3.0 0.00 0.00 0.00 24 1006.5
20260504021539 86 134 0.0 3.0 0.00 0.00 0.00 24 1006.6
20260504021526 86 132 1.0 3.0 0.00 0.00 0.00 24 1006.6
20260504021205 86 108 1.0 3.0 0.00 0.00 0.00 23 1006.6
20260504021104 86 105 1.0 3.0 0.00 0.00 0.00 24 1006.6
20260504021006 86 286 0.0 3.0 0.00 0.00 0.00 24 1006.6
20260504020902 86 292 0.0 3.0 0.00 0.00 0.00 23 1006.7
20260504020802 86 296 0.0 3.0 0.00 0.00 0.00 24 1006.6
20260504020703 86 296 1.0 3.0 0.00 0.00 0.00 25 1006.6
20260504020602 86 296 1.0 3.0 0.00 0.00 0.00 24 1006.7
20260504020502 86 29 2.0 3.0 0.00 0.00 0.00 25 1006.6
20260504020401 86 29 2.0 3.0 0.00 0.00 0.00 24 1006.7
20260504020302 87 30 1.0 3.0 0.00 0.00 0.00 23 1006.7
20260504020201 87 57 1.0 2.0 0.00 0.00 0.00 23 1006.7
20260504020001 87 9 1.0 2.0 0.00 0.00 0.00 24 1006.7
20260504015904 87 91 0.0 2.0 0.00 0.00 0.00 23 1006.7
20260504015801 87 109 0.0 1.0 0.00 0.00 0.00 23 1006.7
20260504015702 87 184 0.0 1.0 0.00 0.00 0.00 24 1006.7
20260504015603 87 187 0.0 1.0 0.00 0.00 0.00 25 1006.7
20260504015501 87 187 0.0 2.0 0.00 0.00 0.00 24 1006.7
20260504015422 87 187 0.0 2.0 0.00 0.00 0.00 24 1006.8
20260504015411 87 187 0.0 2.0 0.00 0.00 0.00 24 1006.8
20260504015400 87 176 1.0 2.0 0.00 0.00 0.00 24 1006.8
20260504015120 86 207 0.0 2.0 0.00 0.00 0.00 24 1006.8
20260504014801 86 352 1.0 4.0 0.00 0.00 0.00 23 1006.8
20260504014712 86 352 1.0 4.0 0.00 0.00 0.00 23 1006.9
20260504014657 86 352 1.0 4.0 0.00 0.00 0.00 24 1006.9
20260504014634 86 338 1.0 4.0 0.00 0.00 0.00 23 1006.9
20260504014622 86 350 1.0 4.0 0.00 0.00 0.00 24 1006.9
20260504014321 86 0 1.0 4.0 0.00 0.00 0.00 24 1006.9
20260504014001 86 156 1.0 4.0 0.00 0.00 0.00 23 1006.9
20260504013901 86 98 1.0 4.0 0.00 0.00 0.00 24 1006.9
20260504013800 86 55 1.0 3.0 0.00 0.00 0.00 24 1006.9
20260504013704 86 55 1.0 6.0 0.00 0.00 0.00 23 1006.9
20260504013606 86 39 1.0 6.0 0.00 0.00 0.00 23 1006.9
20260504013501 86 341 1.0 6.0 0.00 0.00 0.00 24 1006.9
20260504013401 86 31 1.0 6.0 0.00 0.00 0.00 24 1006.9
20260504013332 86 352 1.0 6.0 0.00 0.00 0.00 23 1007.0
20260504013320 86 5 1.0 6.0 0.00 0.00 0.00 23 1006.9
20260504013001 86 64 2.0 6.0 0.00 0.00 0.00 23 1007.0
20260504012901 86 48 2.0 6.0 0.00 0.00 0.00 23 1007.0
20260504012801 86 19 2.0 6.0 0.00 0.00 0.00 23 1007.0
20260504012704 86 220 2.0 6.0 0.00 0.00 0.00 24 1007.0
20260504012600 86 11 2.0 6.0 0.00 0.00 0.00 23 1007.0
20260504012501 86 339 2.0 6.0 0.00 0.00 0.00 23 1007.0
20260504012435 86 352 2.0 6.0 0.00 0.00 0.00 23 1007.0
20260504012422 86 347 3.0 6.0 0.00 0.00 0.00 24 1007.1
20260504012100 86 12 4.0 6.0 0.00 0.00 0.00 23 1007.1
20260504012001 86 352 3.0 6.0 0.00 0.00 0.00 24 1007.1
20260504011859 86 0 3.0 6.0 0.00 0.00 0.00 24 1007.1
20260504011759 86 5 2.0 5.0 0.00 0.00 0.00 23 1007.1
20260504011659 86 332 2.0 5.0 0.00 0.00 0.00 24 1007.1
20260504011557 86 352 1.0 5.0 0.00 0.00 0.00 24 1007.1
20260504011459 86 352 2.0 7.0 0.00 0.00 0.00 24 1007.1
20260504011355 86 333 2.0 7.0 0.00 0.00 0.00 25 1007.2
20260504011252 86 19 2.0 7.0 0.00 0.00 0.00 23 1007.2
20260504011151 86 264 1.0 7.0 0.00 0.00 0.00 23 1007.2
20260504011133 86 60 1.0 7.0 0.00 0.00 0.00 23 1007.3
20260504011110 86 128 1.0 7.0 0.00 0.00 0.00 23 1007.3
20260504010819 86 75 2.0 7.0 0.00 0.00 0.00 24 1007.3
20260504010809 86 61 2.0 7.0 0.00 0.00 0.00 24 1007.3
20260504010446 86 347 2.0 4.0 0.00 0.00 0.00 23 1007.4
20260504010347 87 0 3.0 4.0 0.00 0.00 0.00 23 1007.4
20260504010307 86 65 2.0 4.0 0.00 0.00 0.00 23 1007.4
20260504010255 86 342 2.0 4.0 0.00 0.00 0.00 23 1007.4
20260504010244 86 25 2.0 4.0 0.00 0.00 0.00 23 1007.5
20260504010001 86 176 2.0 6.0 0.00 0.00 0.00 24 1007.5
20260504005641 86 5 2.0 8.0 0.00 0.00 0.00 23 1007.6
20260504005539 86 352 2.0 8.0 0.00 0.00 0.00 24 1007.6
20260504005439 86 324 3.0 8.0 0.00 0.00 0.00 23 1007.7
20260504005333 86 49 2.0 8.0 0.00 0.00 0.00 23 1007.6
20260504005231 86 336 2.0 8.0 0.00 0.00 0.00 24 1007.7
20260504005130 86 298 3.0 8.0 0.00 0.00 0.00 24 1007.7
20260504005029 86 275 3.0 8.0 0.00 0.00 0.00 24 1007.7
20260504004929 86 18 3.0 8.0 0.00 0.00 0.00 23 1007.8
20260504004832 86 351 4.0 8.0 0.00 0.00 0.00 23 1007.8
20260504004728 86 12 4.0 8.0 0.00 0.00 0.00 23 1007.8
20260504004629 87 5 3.0 6.0 0.00 0.00 0.00 22 1007.8
20260504004529 87 341 4.0 6.0 0.00 0.00 0.00 23 1007.8
20260504004430 87 352 3.0 6.0 0.00 0.00 0.00 22 1007.8
20260504004329 87 5 2.0 5.0 0.00 0.00 0.00 24 1007.8
20260504004303 87 71 2.0 5.0 0.00 0.00 0.00 23 1007.9
20260504004251 87 298 2.0 4.0 0.00 0.00 0.00 23 1007.8
20260504004003 87 338 2.0 4.0 0.00 0.00 0.00 23 1007.8
20260504003950 87 289 2.0 4.0 0.00 0.00 0.00 22 1007.8
20260504003630 87 340 3.0 4.0 0.00 0.00 0.00 24 1007.9
20260504003528 87 15 3.0 4.0 0.00 0.00 0.00 23 1007.9
20260504003429 87 333 2.0 5.0 0.00 0.00 0.00 24 1007.9
20260504003330 87 352 2.0 6.0 0.00 0.00 0.00 23 1007.9
20260504003228 87 27 2.0 8.0 0.00 0.00 0.00 23 1007.9
20260504003210 87 352 2.0 9.0 0.00 0.00 0.00 22 1007.9
20260504003157 87 297 3.0 9.0 0.00 0.00 0.00 24 1007.9
20260504002826 86 349 2.0 9.0 0.00 0.00 0.00 24 1008.0
20260504002726 86 334 3.0 9.0 0.00 0.00 0.00 24 1008.0
20260504002629 86 5 3.0 9.0 0.00 0.00 0.00 23 1008.0
20260504002525 86 5 3.0 9.0 0.00 0.00 0.00 24 1008.0
20260504002426 86 32 4.0 9.0 0.00 0.00 0.00 24 1007.9
20260504002325 86 41 4.0 9.0 0.00 0.00 0.00 23 1008.0
20260504002223 86 5 3.0 7.0 0.00 0.00 0.00 24 1008.0
20260504002122 86 343 2.0 7.0 0.00 0.00 0.00 23 1008.0
20260504002023 86 342 3.0 7.0 0.00 0.00 0.00 23 1008.1
20260504001920 86 352 4.0 7.0 0.00 0.00 0.00 23 1008.1
20260504001820 86 5 3.0 7.0 0.00 0.00 0.00 22 1008.1
20260504001720 87 12 3.0 8.0 0.00 0.00 0.00 23 1008.1
20260504001621 87 16 3.0 8.0 0.00 0.00 0.00 23 1008.1
20260504001518 86 342 3.0 8.0 0.00 0.00 0.00 24 1008.1
20260504001417 86 292 2.0 8.0 0.00 0.00 0.00 24 1008.1
20260504001317 86 348 3.0 8.0 0.00 0.00 0.00 24 1008.2
20260504001216 86 59 4.0 8.0 0.00 0.00 0.00 23 1008.2
20260504001113 87 5 4.0 8.0 0.00 0.00 0.00 22 1008.1
20260504001009 87 352 3.0 8.0 0.00 0.00 0.00 24 1008.2
20260504000913 87 339 3.0 8.0 0.00 0.00 0.00 24 1008.2
20260504000807 87 51 4.0 8.0 0.00 0.00 0.00 23 1008.2
20260504000707 87 317 4.0 8.0 0.00 0.00 0.00 22 1008.2
20260504000609 87 5 4.0 8.0 0.00 0.00 0.00 23 1008.2
20260504000548 87 15 3.0 8.0 0.00 0.00 0.00 23 1008.2
20260504000526 87 329 3.0 8.0 0.00 0.00 0.00 25 1008.2
20260504000204 86 331 2.0 8.0 0.00 0.00 0.00 25 1008.2
20260504000101 86 352 2.0 8.0 0.00 0.00 0.00 25 1008.2
20260504000006 86 329 2.0 8.0 0.00 0.00 0.00 25 1008.2
20260503235934 86 9 3.0 8.0 0.00 0.00 0.00 25 1008.2
20260503235922 86 42 3.0 8.0 0.00 0.00 0.00 26 1008.2
20260503235602 86 14 4.0 8.0 0.00 0.00 0.00 25 1008.2
20260503235501 86 83 3.0 8.0 0.00 0.00 0.00 24 1008.2
20260503235401 86 61 4.0 8.0 0.00 0.00 0.00 24 1008.3
20260503235304 86 67 5.0 8.0 0.00 0.00 0.00 23 1008.3
20260503235235 86 17 4.0 8.0 0.00 0.00 0.00 23 1008.3
20260503235223 87 329 4.0 8.0 0.00 0.00 0.00 23 1008.3
20260503234901 87 338 4.0 8.0 0.00 0.00 0.00 23 1008.3
20260503234802 87 350 3.0 9.0 0.00 0.00 0.00 25 1008.3
20260503234702 87 352 3.0 11.0 0.00 0.00 0.00 24 1008.3
20260503234601 87 11 3.0 11.0 0.00 0.00 0.00 24 1008.3
20260503234501 87 306 3.0 11.0 0.00 0.00 0.00 23 1008.4
20260503234401 87 306 3.0 11.0 0.00 0.00 0.00 24 1008.3
20260503234301 87 331 3.0 11.0 0.00 0.00 0.00 23 1008.3
20260503234204 87 291 4.0 11.0 0.00 0.00 0.00 24 1008.4
20260503234145 87 317 5.0 11.0 0.00 0.00 0.00 23 1008.4
20260503234132 87 312 7.0 11.0 0.00 0.00 0.00 25 1008.4
20260503233802 87 302 3.0 11.0 0.00 0.00 0.00 25 1008.3
20260503233701 87 306 4.0 8.0 0.00 0.00 0.00 25 1008.4
20260503233604 87 348 5.0 10.0 0.00 0.00 0.00 24 1008.4
20260503233502 87 20 4.0 10.0 0.00 0.00 0.00 25 1008.4
20260503233402 87 22 2.0 10.0 0.00 0.00 0.00 25 1008.4
20260503233341 87 16 1.0 10.0 0.00 0.00 0.00 25 1008.4
20260503233328 87 28 1.0 10.0 0.00 0.00 0.00 26 1008.4
20260503233052 87 279 2.0 10.0 0.00 0.00 0.00 23 1008.4
20260503233029 87 273 4.0 10.0 0.00 0.00 0.00 23 1008.4
20260503232701 87 352 4.0 10.0 0.00 0.00 0.00 23 1008.5
20260503232601 87 336 4.0 9.0 0.00 0.00 0.00 23 1008.5
20260503232502 87 286 4.0 9.0 0.00 0.00 0.00 24 1008.6
20260503232403 87 317 5.0 9.0 0.00 0.00 0.00 24 1008.5
20260503232301 87 318 5.0 9.0 0.00 0.00 0.00 23 1008.6
20260503232202 87 289 4.0 9.0 0.00 0.00 0.00 23 1008.5
20260503232108 87 0 2.0 8.0 0.00 0.00 0.00 24 1008.5
20260503232052 87 315 3.0 8.0 0.00 0.00 0.00 25 1008.6
20260503232030 87 335 4.0 8.0 0.00 0.00 0.00 24 1008.6
20260503231659 87 11 3.0 9.0 0.00 0.00 0.00 24 1008.6
20260503231559 87 9 4.0 9.0 0.00 0.00 0.00 25 1008.6
20260503231457 87 343 3.0 9.0 0.00 0.00 0.00 26 1008.6
20260503231415 87 337 2.0 9.0 0.00 0.00 0.00 26 1008.6
20260503231359 87 351 3.0 9.0 0.00 0.00 0.00 25 1008.6
20260503231348 87 298 3.0 9.0 0.00 0.00 0.00 27 1008.6
20260503231036 87 34 4.0 9.0 0.00 0.00 0.00 25 1008.6
20260503231013 87 346 3.0 9.0 0.00 0.00 0.00 24 1008.7
20260503230652 87 297 4.0 8.0 0.00 0.00 0.00 25 1008.6
20260503230551 87 311 3.0 8.0 0.00 0.00 0.00 25 1008.6
20260503230451 87 19 3.0 8.0 0.00 0.00 0.00 25 1008.7
20260503230352 87 334 4.0 10.0 0.00 0.00 0.00 26 1008.7
20260503230249 87 269 3.0 10.0 0.00 0.00 0.00 25 1008.7
20260503230151 87 343 2.0 10.0 0.00 0.00 0.00 26 1008.7
20260503230129 87 291 3.0 10.0 0.00 0.00 0.00 26 1008.7
20260503230119 87 341 4.0 10.0 0.00 0.00 0.00 27 1008.7
20260503225747 87 309 4.0 10.0 0.00 0.00 0.00 25 1008.7
20260503225645 87 51 3.0 10.0 0.00 0.00 0.00 28 1008.7
20260503225547 87 0 4.0 10.0 0.00 0.00 0.00 27 1008.8
20260503225444 87 352 5.0 10.0 0.00 0.00 0.00 26 1008.7
20260503225338 87 345 4.0 10.0 0.00 0.00 0.00 27 1008.7
20260503225241 87 348 3.0 6.0 0.00 0.00 0.00 27 1008.8
20260503225137 87 11 2.0 6.0 0.00 0.00 0.00 27 1008.8
20260503225036 87 284 2.0 6.0 0.00 0.00 0.00 26 1008.8
20260503224949 87 5 2.0 6.0 0.00 0.00 0.00 26 1008.8
20260503224920 87 86 2.0 6.0 0.00 0.00 0.00 27 1008.8
20260503224902 87 34 2.0 6.0 0.00 0.00 0.00 27 1008.9
20260503224627 86 62 3.0 9.0 0.00 0.00 0.00 27 1008.9
20260503224615 86 22 2.0 9.0 0.00 0.00 0.00 27 1008.9
20260503224330 86 67 1.0 9.0 0.00 0.00 0.00 28 1008.9
20260503224318 86 44 1.0 9.0 0.00 0.00 0.00 27 1009.0
20260503223931 86 21 2.0 9.0 0.00 0.00 0.00 25 1009.0
20260503223904 86 15 3.0 9.0 0.00 0.00 0.00 25 1009.0
20260503223851 86 5 5.0 9.0 0.00 0.00 0.00 26 1009.0
20260503223530 87 332 3.0 5.0 0.00 0.00 0.00 27 1009.1
20260503223432 87 342 2.0 5.0 0.00 0.00 0.00 26 1009.1
20260503223330 87 14 2.0 5.0 0.00 0.00 0.00 26 1009.1
20260503223229 87 86 2.0 5.0 0.00 0.00 0.00 27 1009.1
20260503223203 87 82 3.0 5.0 0.00 0.00 0.00 27 1009.2
20260503223149 87 0 2.0 5.0 0.00 0.00 0.00 27 1009.2
20260503223138 87 65 2.0 5.0 0.00 0.00 0.00 28 1009.2
20260503223112 87 40 3.0 8.0 0.00 0.00 0.00 28 1009.1
20260503222549 87 350 2.0 8.0 0.00 0.00 0.00 27 1009.2
20260503222536 86 352 3.0 8.0 0.00 0.00 0.00 27 1009.2
20260503222514 86 352 2.0 8.0 0.00 0.00 0.00 27 1009.3
20260503222500 86 352 2.0 8.0 0.00 0.00 0.00 28 1009.2
20260503221923 86 32 4.0 8.0 0.00 0.00 0.00 26 1009.4
20260503221820 86 26 3.0 6.0 0.00 0.00 0.00 26 1009.3
20260503221724 86 352 2.0 6.0 0.00 0.00 0.00 28 1009.4
20260503221619 86 348 2.0 6.0 0.00 0.00 0.00 26 1009.4
20260503221519 86 333 2.0 6.0 0.00 0.00 0.00 26 1009.4
20260503221417 87 344 4.0 6.0 0.00 0.00 0.00 27 1009.4
20260503221317 87 352 3.0 6.0 0.00 0.00 0.00 27 1009.4
20260503221216 87 329 3.0 6.0 0.00 0.00 0.00 27 1009.5
20260503221146 87 269 2.0 5.0 0.00 0.00 0.00 27 1009.5
20260503221059 87 281 1.0 5.0 0.00 0.00 0.00 27 1009.4
20260503221048 87 352 1.0 5.0 0.00 0.00 0.00 27 1009.4
20260503220714 87 72 2.0 5.0 0.00 0.00 0.00 27 1009.5
20260503220645 87 29 2.0 5.0 0.00 0.00 0.00 27 1009.5
20260503220632 87 350 2.0 5.0 0.00 0.00 0.00 28 1009.5
20260503220310 86 345 3.0 5.0 0.00 0.00 0.00 28 1009.5
20260503220208 86 13 3.0 5.0 0.00 0.00 0.00 29 1009.6
20260503220114 87 333 2.0 5.0 0.00 0.00 0.00 28 1009.6
20260503220059 87 346 2.0 5.0 0.00 0.00 0.00 27 1009.5
20260503220048 87 276 2.0 5.0 0.00 0.00 0.00 27 1009.5
20260503215706 86 303 1.0 5.0 0.00 0.00 0.00 30 1009.6
20260503215605 86 352 1.0 5.0 0.00 0.00 0.00 29 1009.6
20260503215503 86 261 1.0 5.0 0.00 0.00 0.00 28 1009.7
20260503215407 86 258 2.0 5.0 0.00 0.00 0.00 29 1009.6
20260503215304 86 226 2.0 5.0 0.00 0.00 0.00 28 1009.6
20260503215202 86 162 1.0 5.0 0.00 0.00 0.00 28 1009.7
20260503215135 85 221 2.0 4.0 0.00 0.00 0.00 28 1009.6
20260503215122 85 352 2.0 5.0 0.00 0.00 0.00 29 1009.7
20260503214801 85 350 2.0 5.0 0.00 0.00 0.00 29 1009.8
20260503214703 85 132 2.0 5.0 0.00 0.00 0.00 28 1009.8
20260503214601 85 339 2.0 6.0 0.00 0.00 0.00 29 1009.8
20260503214504 85 78 1.0 7.0 0.00 0.00 0.00 28 1009.9
20260503214403 85 154 2.0 7.0 0.00 0.00 0.00 27 1009.9
20260503214306 86 74 3.0 7.0 0.00 0.00 0.00 27 1009.9
20260503214201 86 88 2.0 7.0 0.00 0.00 0.00 27 1009.9
20260503214104 86 88 3.0 7.0 0.00 0.00 0.00 29 1009.9
20260503214001 86 95 3.0 7.0 0.00 0.00 0.00 28 1009.9
20260503213903 86 81 3.0 7.0 0.00 0.00 0.00 28 1010.1
20260503213801 86 59 4.0 7.0 0.00 0.00 0.00 30 1010.1
20260503213703 86 30 4.0 7.0 0.00 0.00 0.00 29 1010.1
20260503213601 86 0 2.0 7.0 0.00 0.00 0.00 29 1010.1
20260503213503 86 340 2.0 5.0 0.00 0.00 0.00 29 1010.1
20260503213405 86 55 2.0 5.0 0.00 0.00 0.00 30 1010.1
20260503213334 86 348 2.0 5.0 0.00 0.00 0.00 30 1010.1
20260503213321 86 342 1.0 5.0 0.00 0.00 0.00 30 1010.1
20260503213001 86 250 1.0 5.0 0.00 0.00 0.00 29 1010.1
20260503212902 86 352 2.0 5.0 0.00 0.00 0.00 30 1010.2
20260503212801 86 22 2.0 5.0 0.00 0.00 0.00 30 1010.1
20260503212734 86 333 2.0 5.0 0.00 0.00 0.00 31 1010.2
20260503212723 86 338 2.0 5.0 0.00 0.00 0.00 30 1010.2
20260503212402 86 304 2.0 5.0 0.00 0.00 0.00 30 1010.2
20260503212305 86 5 2.0 5.0 0.00 0.00 0.00 28 1010.3
20260503212201 86 348 2.0 5.0 0.00 0.00 0.00 27 1010.2
20260503212135 86 25 3.0 5.0 0.00 0.00 0.00 30 1010.3
20260503212122 85 22 3.0 5.0 0.00 0.00 0.00 29 1010.3
20260503211805 85 340 2.0 4.0 0.00 0.00 0.00 30 1010.3
20260503211726 86 269 2.0 4.0 0.00 0.00 0.00 28 1010.3
20260503211714 86 281 2.0 4.0 0.00 0.00 0.00 29 1010.3
20260503211704 86 290 2.0 4.0 0.00 0.00 0.00 28 1010.3
20260503211421 86 279 2.0 4.0 0.00 0.00 0.00 31 1010.4
20260503211139 85 224 2.0 5.0 0.00 0.00 0.00 30 1010.4
20260503211125 85 273 2.0 5.0 0.00 0.00 0.00 29 1010.4
20260503211114 85 246 1.0 8.0 0.00 0.00 0.00 29 1010.5
20260503211049 85 239 1.0 8.0 0.00 0.00 0.00 29 1010.4
20260503211008 85 180 1.0 8.0 0.00 0.00 0.00 28 1010.5
20260503210956 84 167 2.0 8.0 0.00 0.00 0.00 29 1010.5
20260503210945 84 97 2.0 8.0 0.00 0.00 0.00 28 1010.5
20260503210704 85 17 2.0 8.0 0.00 0.00 0.00 29 1010.6
20260503205948 85 11 2.0 6.0 0.00 0.00 0.00 30 1010.5
20260503205924 84 55 2.0 6.0 0.00 0.00 0.00 28 1010.6
20260503205601 84 89 1.0 5.0 0.00 0.00 0.00 31 1010.6
20260503205505 84 331 2.0 5.0 0.00 0.00 0.00 30 1010.6
20260503205404 84 273 2.0 5.0 0.00 0.00 0.00 31 1010.6
20260503205337 84 290 2.0 5.0 0.00 0.00 0.00 30 1010.6
20260503205323 84 322 2.0 5.0 0.00 0.00 0.00 31 1010.7
20260503204959 84 5 2.0 5.0 0.00 0.00 0.00 32 1010.7
20260503204924 84 329 3.0 5.0 0.00 0.00 0.00 30 1010.7
20260503204859 84 327 4.0 5.0 0.00 0.00 0.00 32 1010.7
20260503204848 84 289 3.0 5.0 0.00 0.00 0.00 32 1010.7
20260503204616 85 328 2.0 4.0 0.00 0.00 0.00 30 1010.7
20260503204258 84 54 1.0 3.0 0.00 0.00 0.00 31 1010.8
20260503204154 84 257 1.0 3.0 0.00 0.00 0.00 31 1010.8
20260503204056 84 268 1.0 3.0 0.00 0.00 0.00 31 1010.8
20260503203954 84 277 1.0 6.0 0.00 0.00 0.00 31 1010.8
20260503203858 84 60 1.0 6.0 0.00 0.00 0.00 32 1010.8
20260503203755 83 82 1.0 6.0 0.00 0.00 0.00 32 1010.8
20260503203648 83 160 1.0 6.0 0.00 0.00 0.00 33 1010.8
20260503203546 83 74 2.0 6.0 0.00 0.00 0.00 32 1010.8
20260503203445 83 82 2.0 6.0 0.00 0.00 0.00 32 1010.8
20260503203345 83 75 2.0 6.0 0.00 0.00 0.00 32 1010.8
20260503203248 83 134 3.0 6.0 0.00 0.00 0.00 32 1010.8
20260503203143 83 141 3.0 6.0 0.00 0.00 0.00 31 1010.8
20260503203049 83 157 2.0 6.0 0.00 0.00 0.00 32 1010.8
20260503203033 83 166 2.0 5.0 0.00 0.00 0.00 32 1010.9
20260503203022 83 253 2.0 6.0 0.00 0.00 0.00 32 1010.9
20260503202958 83 186 2.0 6.0 0.00 0.00 0.00 33 1010.9
20260503202947 83 236 2.0 6.0 0.00 0.00 0.00 33 1010.9
20260503202935 83 263 2.0 6.0 0.00 0.00 0.00 34 1010.9
20260503202703 82 242 1.0 6.0 0.00 0.00 0.00 34 1011.0
20260503202202 82 236 3.0 6.0 0.00 0.00 0.00 33 1011.0
20260503201838 82 263 2.0 8.0 0.00 0.00 0.00 34 1011.0
20260503201734 82 254 2.0 8.0 0.00 0.00 0.00 32 1011.0
20260503201635 82 304 2.0 8.0 0.00 0.00 0.00 33 1011.1
20260503201532 82 325 2.0 8.0 0.00 0.00 0.00 34 1011.1
20260503201516 82 344 2.0 8.0 0.00 0.00 0.00 33 1011.1
20260503201504 82 30 4.0 8.0 0.00 0.00 0.00 35 1011.1
20260503201130 82 17 3.0 8.0 0.00 0.00 0.00 33 1011.1
20260503201032 82 0 4.0 8.0 0.00 0.00 0.00 35 1011.2
20260503200930 82 305 4.0 8.0 0.00 0.00 0.00 35 1011.1
20260503200834 82 300 3.0 5.0 0.00 0.00 0.00 34 1011.1
20260503200729 82 244 3.0 6.0 0.00 0.00 0.00 35 1011.1
20260503200630 82 349 2.0 6.0 0.00 0.00 0.00 35 1011.1
20260503200530 82 59 1.0 6.0 0.00 0.00 0.00 35 1011.2
20260503200431 82 233 1.0 6.0 0.00 0.00 0.00 34 1011.2
20260503200330 82 317 2.0 6.0 0.00 0.00 0.00 36 1011.2
20260503200234 82 307 2.0 6.0 0.00 0.00 0.00 33 1011.2
20260503200130 82 254 1.0 6.0 0.00 0.00 0.00 33 1011.2
20260503200031 82 213 2.0 6.0 0.00 0.00 0.00 33 1011.2
20260503195929 82 153 2.0 6.0 0.00 0.00 0.00 34 1011.2
20260503195835 82 119 3.0 6.0 0.00 0.00 0.00 36 1011.2
20260503195801 82 81 2.0 5.0 0.00 0.00 0.00 34 1011.2
20260503195750 82 78 2.0 5.0 0.00 0.00 0.00 35 1011.3
20260503195434 82 77 3.0 5.0 0.00 0.00 0.00 34 1011.3
20260503195329 81 136 2.0 5.0 0.00 0.00 0.00 35 1011.3
20260503195232 81 51 2.0 5.0 0.00 0.00 0.00 35 1011.3
20260503195128 81 109 2.0 5.0 0.00 0.00 0.00 35 1011.3
20260503195033 81 96 1.0 5.0 0.00 0.00 0.00 35 1011.3
20260503194929 81 97 1.0 5.0 0.00 0.00 0.00 35 1011.4
20260503194829 81 138 2.0 5.0 0.00 0.00 0.00 35 1011.4
20260503194723 81 120 3.0 5.0 0.00 0.00 0.00 34 1011.3
20260503194623 81 69 2.0 5.0 0.00 0.00 0.00 34 1011.4
20260503194552 81 318 2.0 6.0 0.00 0.00 0.00 35 1011.5
20260503194541 81 46 2.0 6.0 0.00 0.00 0.00 34 1011.4
20260503194219 81 5 2.0 6.0 0.00 0.00 0.00 35 1011.5
20260503194119 81 317 3.0 6.0 0.00 0.00 0.00 34 1011.6
20260503194012 81 44 3.0 6.0 0.00 0.00 0.00 35 1011.6
20260503193910 81 301 2.0 6.0 0.00 0.00 0.00 34 1011.6
20260503193820 81 33 2.0 6.0 0.00 0.00 0.00 34 1011.6
20260503193709 81 309 3.0 6.0 0.00 0.00 0.00 35 1011.6
20260503193632 81 5 2.0 6.0 0.00 0.00 0.00 35 1011.6
20260503193618 80 23 1.0 4.0 0.00 0.00 0.00 37 1011.7
20260503193607 80 350 1.0 4.0 0.00 0.00 0.00 37 1011.7
20260503193553 80 316 1.0 4.0 0.00 0.00 0.00 36 1011.7
20260503193007 80 127 2.0 6.0 0.00 0.00 0.00 35 1011.7
20260503192905 80 5 2.0 6.0 0.00 0.00 0.00 37 1011.8
20260503192807 80 319 2.0 6.0 0.00 0.00 0.00 37 1011.8
20260503192602 80 278 2.0 6.0 0.00 0.00 0.00 38 1011.8
20260503192501 80 200 2.0 6.0 0.00 0.00 0.00 38 1011.8
20260503192400 80 246 3.0 6.0 0.00 0.00 0.00 38 1011.9
20260503192302 80 286 3.0 6.0 0.00 0.00 0.00 38 1011.9
20260503192202 80 338 2.0 5.0 0.00 0.00 0.00 37 1011.9
20260503192101 80 335 2.0 6.0 0.00 0.00 0.00 40 1011.9
20260503192001 80 338 2.0 7.0 0.00 0.00 0.00 38 1011.9
20260503191901 80 117 2.0 7.0 0.00 0.00 0.00 36 1012.0
20260503191803 80 153 2.0 7.0 0.00 0.00 0.00 36 1012.0
20260503191733 80 119 2.0 7.0 0.00 0.00 0.00 36 1012.0
20260503191721 79 65 3.0 7.0 0.00 0.00 0.00 37 1012.0
20260503191403 80 290 3.0 7.0 0.00 0.00 0.00 38 1012.1
20260503191301 79 343 4.0 7.0 0.00 0.00 0.00 37 1012.1
20260503191202 80 351 4.0 7.0 0.00 0.00 0.00 38 1012.1
20260503191130 80 329 3.0 7.0 0.00 0.00 0.00 38 1012.1
20260503191116 80 5 2.0 5.0 0.00 0.00 0.00 39 1012.1
20260503191054 79 311 2.0 5.0 0.00 0.00 0.00 38 1012.1
20260503191043 79 162 2.0 5.0 0.00 0.00 0.00 40 1012.1
20260503191030 79 263 2.0 7.0 0.00 0.00 0.00 39 1012.1
20260503190759 79 177 1.0 7.0 0.00 0.00 0.00 39 1012.2
20260503190736 79 352 2.0 7.0 0.00 0.00 0.00 38 1012.2
20260503190726 79 0 2.0 7.0 0.00 0.00 0.00 39 1012.2
20260503190643 78 12 2.0 7.0 0.00 0.00 0.00 39 1012.3
20260503185921 78 13 1.0 7.0 0.00 0.00 0.00 40 1012.3
20260503185603 78 260 1.0 7.0 0.00 0.00 0.00 42 1012.3
20260503185502 78 272 3.0 7.0 0.00 0.00 0.00 41 1012.3
20260503185402 78 267 4.0 7.0 0.00 0.00 0.00 40 1012.3
20260503185252 78 278 4.0 7.0 0.00 0.00 0.00 41 1012.3
20260503185151 78 253 3.0 6.0 0.00 0.00 0.00 41 1012.3
20260503185049 78 253 3.0 6.0 0.00 0.00 0.00 40 1012.3
20260503184948 78 294 3.0 5.0 0.00 0.00 0.00 41 1012.4
20260503184848 78 275 2.0 4.0 0.00 0.00 0.00 40 1012.4
20260503184747 78 286 2.0 4.0 0.00 0.00 0.00 40 1012.4
20260503184648 78 281 1.0 3.0 0.00 0.00 0.00 43 1012.4
20260503184547 78 234 1.0 7.0 0.00 0.00 0.00 43 1012.4
20260503184507 78 98 2.0 7.0 0.00 0.00 0.00 41 1012.4
20260503184440 77 227 1.0 7.0 0.00 0.00 0.00 43 1012.4
20260503184429 77 275 1.0 7.0 0.00 0.00 0.00 42 1012.4
20260503184415 77 38 1.0 8.0 0.00 0.00 0.00 41 1012.4
20260503184145 77 335 2.0 8.0 0.00 0.00 0.00 43 1012.5
20260503184121 77 346 3.0 8.0 0.00 0.00 0.00 42 1012.5
20260503184107 77 331 3.0 8.0 0.00 0.00 0.00 41 1012.5
20260503183616 76 262 4.0 8.0 0.00 0.00 0.00 46 1012.5
20260503183553 76 250 4.0 8.0 0.00 0.00 0.00 44 1012.5
20260503183540 76 332 2.0 6.0 0.00 0.00 0.00 45 1012.5
20260503183308 76 175 2.0 5.0 0.00 0.00 0.00 43 1012.5
20260503182954 76 111 2.0 5.0 0.00 0.00 0.00 44 1012.5
20260503182634 76 61 2.0 5.0 0.00 0.00 0.00 44 1012.6
20260503182532 76 92 2.0 6.0 0.00 0.00 0.00 44 1012.6
20260503182433 76 85 2.0 6.0 0.00 0.00 0.00 44 1012.6
20260503182332 76 5 2.0 6.0 0.00 0.00 0.00 45 1012.6
20260503182230 76 5 2.0 6.0 0.00 0.00 0.00 44 1012.6
20260503182130 76 299 2.0 6.0 0.00 0.00 0.00 45 1012.7
20260503182059 76 32 2.0 6.0 0.00 0.00 0.00 45 1012.6
20260503182046 76 344 2.0 6.0 0.00 0.00 0.00 44 1012.7
20260503182025 76 336 3.0 6.0 0.00 0.00 0.00 46 1012.7
20260503181752 75 352 3.0 6.0 0.00 0.00 0.00 45 1012.7
20260503181740 75 5 3.0 5.0 0.00 0.00 0.00 47 1012.8
20260503181730 75 346 2.0 5.0 0.00 0.00 0.00 46 1012.7